Location: Home
(42.5358°N, 72.7383°W)
Time: 11:09:53
(UTC-05:00)

Explorer 7 - Pass Details

Date: 05 December 2021
Orbit: 483 x 674 km, 50.3° (Epoch: 20 January)

Event Time Altitude Azimuth Distance (km) Brightness Sun altitude
Rises 06:44:10 0° 271° (W) 2,803 - -4.3°
Exits shadow 06:44:51 - 273° (W) 2,539 9.6 -4.2°
Reaches altitude 10° 06:46:40 10° 281° (W) 1,868 8.9 -3.9°
Maximum altitude 06:50:31 33° 346° (NNW) 939 7.7 -3.2°
Drops below altitude 10° 06:54:10 10° 51° (NE) 1,767 9.7 -2.6°
Sets 06:56:30 0° 62° (ENE) 2,627 10.8 -2.3°
